Voltar ao catálogo

COSMOS 2251 DEB

AtivoLEO
NORAD 34127·DEBRIS·🇷🇺 Russia

Lançado Jun 16, 1993 de Plesetsk Cosmodrome

Loading…

Próximas Passagens (próximas 24 horas)

TLE

AtualizadoSource: Space-Track

Época: Sep 13, 2026, 01:47 UTC

1 34127U 93036KY  26256.07443786  .00002818  00000-0  96123-3 0  9991
2 34127  74.1734 267.1736 0109673  27.3491  32.1456 14.33505982907006

Acompanhe COSMOS 2251 DEB em tempo real com AllMySat

Download on the App Store